Location: Deurze
(52.9838°N, 6.6090°E)
Time: 16:15:25
(UTC+00:00)

Cosmos 2344 - Visible Passes

Search period start: 11 June 2026 00:00
Search period end: 21 June 2026 00:00
Orbit: 1194 x 3048 km, 63.3° (Epoch: 10 June)

Date Brightness Start Highest point End Pass type
(mag) Time Alt. Az. Time Alt. Az. Time Alt. Az.
11 Jun 3.8 00:03:31 10° WSW 00:10:56 66° NW 00:18:19 10° NE visible
11 Jun 4.0 21:39:36 10° S 21:46:40 38° ESE 21:53:11 10° NE visible
11 Jun 3.8 23:53:10 10° WSW 00:00:35 66° NW 00:07:58 10° NE visible
12 Jun 4.9 02:09:37 10° WNW 02:16:19 39° N 02:23:48 10° ENE visible
12 Jun 4.0 21:29:14 10° S 21:36:18 38° ESE 21:42:49 10° NE visible
12 Jun 3.8 23:42:48 10° WSW 23:50:13 66° NW 23:57:36 10° NE visible
13 Jun 4.9 01:59:15 10° WNW 02:05:58 39° N 02:13:27 10° ENE visible
13 Jun 4.0 21:18:53 10° S 21:25:57 38° ESE 21:32:28 10° NE visible
13 Jun 3.8 23:32:28 10° WSW 23:39:52 66° NW 23:47:15 10° NE visible
14 Jun 4.9 01:48:55 10° WNW 01:55:36 39° N 02:03:06 10° ENE visible
14 Jun 4.0 21:08:30 10° S 21:15:35 38° ESE 21:22:06 10° NE visible
14 Jun 3.9 23:22:06 10° WSW 23:29:30 65° NW 23:36:53 10° NE visible
15 Jun 5.0 01:38:33 10° WNW 01:45:16 39° N 01:52:44 10° ENE visible
15 Jun 4.0 20:58:08 10° S 21:05:14 38° ESE 21:11:45 10° NE visible
15 Jun 3.9 23:11:45 10° WSW 23:19:09 65° NW 23:26:32 10° NE visible
16 Jun 5.0 01:28:12 10° WNW 01:34:54 39° N 01:42:23 10° ENE visible
16 Jun 3.9 20:47:47 10° S 20:54:52 39° ESE 21:01:24 10° NE visible
16 Jun 3.9 23:01:24 10° WSW 23:08:48 65° NW 23:16:11 10° NE visible
17 Jun 5.0 01:17:51 10° WNW 01:24:33 39° N 01:32:02 10° ENE visible
17 Jun 3.9 22:51:02 10° WSW 22:58:27 65° NW 23:05:49 10° NE visible
18 Jun 5.0 01:07:30 10° WNW 01:14:11 39° N 01:21:41 10° ENE visible
18 Jun 3.9 22:40:41 10° WSW 22:48:06 65° NW 22:55:28 10° NE visible
19 Jun 5.0 00:57:08 10° WNW 01:03:50 39° N 01:11:20 10° ENE visible
19 Jun 3.9 22:30:20 10° WSW 22:37:44 65° NW 22:45:07 10° NE visible
20 Jun 5.0 00:46:47 10° WNW 00:53:29 39° N 01:00:59 10° ENE visible
20 Jun 3.9 22:19:58 10° WSW 22:27:23 65° NW 22:34:45 10° NE visible
